Weather History for Bentonville, AR

Change the Weather History Date:

Friday, November 22, 2013

  Actual Average Record
Temperature  
Mean Temperature 36 °F -  
Max Temperature 41 °F 56 °F 75 °F (1955)
Min Temperature 30 °F 32 °F 13 °F (1964)
Degree Days  
Heating Degree Days 30    
Moisture  
Dew Point 29 °F    
Average Humidity 84    
Maximum Humidity 93    
Minimum Humidity 80    
Precipitation  
Precipitation 0.00 in - - ()
Sea Level Pressure  
Sea Level Pressure 30.42 in    
Wind  
Wind Speed 13 mph (North)    
Max Wind Speed 17 mph    
Max Gust Speed 23 mph    
Visibility 8 miles    
Events      
Averages and records for this station are not official NWS values.
T = Trace of Precipitation, MM = Missing Value Source: NWS Daily Summary

Daily Weather History Graph

Daily Weather History Graph

Search for Another Location

Airport:

Trip Planner

Search our weather history database for the weather conditions in past years. The results will help you decide how hot, cold, wet, or windy it might be!

Date:

Astronomy

Nov. 22, 2013 Rise Set
Actual Time 7:01 AM CST 5:04 PM CST
Civil Twilight 6:33 AM CST 5:32 PM CST
Nautical Twilight 6:02 AM CST 6:03 PM CST
Astronomical Twilight 5:31 AM CST 6:34 PM CST
Moon 9:35 PM CST (11/22) 10:47 AM CST (11/22)
Length of Visible Light 10h 58m
Length of Day
10h 03m
Waning Gibbous, 78% of the Moon is Illuminated
Nov 22
Waning Gibbous
Nov 25
Last Quarter
Dec 2
New
Dec 9
First Quarter
Dec 17
Full

Hourly Weather History & Observations

Time (CST) Temp. Windchill Dew Point Humidity Pressure Visibility Wind Dir Wind Speed Gust Speed Precip Events Conditions
12:15 AM 41.0 °F 33.9 °F 37.4 °F 87% 30.27 in 2.0 mi NNW 12.7 mph 19.6 mph N/A   Overcast
12:35 AM 39.2 °F 31.2 °F 35.6 °F 87% 30.27 in 1.8 mi North 13.8 mph 17.3 mph N/A   Overcast
12:55 AM 37.4 °F 28.2 °F 33.8 °F 87% 30.29 in 4.0 mi North 16.1 mph 19.6 mph N/A   Overcast
1:15 AM 37.4 °F 29.3 °F 33.8 °F 87% 30.29 in 2.0 mi NNW 12.7 mph 19.6 mph N/A   Overcast
1:35 AM 35.6 °F 26.6 °F 33.8 °F 93% 30.29 in 4.0 mi North 13.8 mph 23.0 mph N/A   Overcast
1:55 AM 35.6 °F 27.1 °F 32.0 °F 87% 30.31 in 8.0 mi North 12.7 mph 21.9 mph N/A   Overcast
2:15 AM 35.6 °F 26.6 °F 32.0 °F 87% 30.31 in 4.0 mi North 13.8 mph 18.4 mph N/A   Overcast
2:35 AM 35.6 °F 26.2 °F 32.0 °F 87% 30.32 in 7.0 mi North 15.0 mph 21.9 mph N/A   Overcast
2:55 AM 35.6 °F 26.6 °F 32.0 °F 87% 30.32 in 7.0 mi North 13.8 mph 20.7 mph N/A   Overcast
3:15 AM 35.6 °F 27.5 °F 30.2 °F 81% 30.32 in 8.0 mi North 11.5 mph - N/A   Overcast
3:35 AM 35.6 °F 25.5 °F 30.2 °F 81% 30.33 in 10.0 mi North 17.3 mph 20.7 mph N/A   Overcast
3:55 AM 33.8 °F 24.8 °F 30.2 °F 87% 30.33 in 10.0 mi North 12.7 mph 20.7 mph N/A   Overcast
4:15 AM 33.8 °F 23.5 °F 30.2 °F 87% 30.33 in 7.0 mi North 16.1 mph 21.9 mph N/A   Overcast
4:35 AM 33.8 °F 23.2 °F 30.2 °F 87% 30.34 in 7.0 mi North 17.3 mph 21.9 mph N/A   Overcast
4:55 AM 33.8 °F 23.5 °F 28.4 °F 81% 30.36 in 5.0 mi North 16.1 mph 20.7 mph N/A   Overcast
5:15 AM 33.8 °F 23.9 °F 30.2 °F 87% 30.36 in 5.0 mi NNE 15.0 mph 21.9 mph N/A   Overcast
5:35 AM 33.8 °F 25.8 °F 28.4 °F 81% 30.37 in 7.0 mi North 10.4 mph 19.6 mph N/A   Overcast
5:55 AM 33.8 °F 23.9 °F 28.4 °F 81% 30.37 in 7.0 mi North 15.0 mph - N/A   Overcast
6:15 AM 33.8 °F 24.3 °F 28.4 °F 81% 30.38 in 10.0 mi North 13.8 mph - N/A   Overcast
6:35 AM 33.8 °F 24.3 °F 28.4 °F 81% 30.39 in 10.0 mi North 13.8 mph 23.0 mph N/A   Overcast
6:55 AM 33.8 °F 25.8 °F 28.4 °F 81% 30.40 in 10.0 mi North 10.4 mph - N/A   Overcast
7:15 AM 33.8 °F 24.3 °F 28.4 °F 81% 30.42 in 10.0 mi North 13.8 mph 17.3 mph N/A   Overcast
7:35 AM 33.8 °F 24.8 °F 28.4 °F 81% 30.43 in 7.0 mi North 12.7 mph - N/A   Overcast
7:55 AM 32.0 °F 21.2 °F 28.4 °F 87% 30.44 in 10.0 mi North 16.1 mph 21.9 mph N/A   Overcast
8:15 AM 32.0 °F 22.1 °F 28.4 °F 87% 30.44 in 6.0 mi NNE 13.8 mph 19.6 mph N/A   Overcast
8:35 AM 32.0 °F 24.8 °F 28.4 °F 87% 30.46 in 3.0 mi North 8.1 mph - N/A   Overcast
8:55 AM 30.2 °F 18.9 °F 28.4 °F 93% 30.46 in 1.0 mi North 16.1 mph 20.7 mph N/A   Overcast
9:15 AM 30.2 °F 20.8 °F 28.4 °F 93% 30.46 in 2.5 mi NNE 11.5 mph - N/A   Overcast
9:35 AM 32.0 °F 23.0 °F 28.4 °F 87% 30.46 in 3.0 mi North 11.5 mph - N/A   Overcast
9:55 AM 32.0 °F 23.0 °F 28.4 °F 87% 30.46 in 2.0 mi North 11.5 mph - N/A   Overcast
10:15 AM 30.2 °F 21.9 °F 28.4 °F 93% 30.47 in 3.0 mi North 9.2 mph - N/A   Overcast
10:35 AM 30.2 °F 21.3 °F 28.4 °F 93% 30.46 in 3.0 mi North 10.4 mph - N/A   Overcast
10:55 AM 32.0 °F 23.0 °F 28.4 °F 87% 30.46 in 4.0 mi North 11.5 mph 16.1 mph N/A   Overcast
11:15 AM 32.0 °F 22.5 °F 28.4 °F 87% 30.47 in 5.0 mi North 12.7 mph 16.1 mph N/A   Overcast
11:35 AM 32.0 °F 22.5 °F 28.4 °F 87% 30.46 in 9.0 mi NNE 12.7 mph - N/A   Overcast
11:55 AM 33.8 °F 27.0 °F 28.4 °F 81% 30.46 in 10.0 mi North 8.1 mph - N/A   Overcast
12:15 PM 33.8 °F 25.3 °F 28.4 °F 81% 30.45 in 10.0 mi North 11.5 mph - N/A   Overcast
12:35 PM 32.0 °F 22.5 °F 26.6 °F 80% 30.45 in 8.0 mi North 12.7 mph 16.1 mph N/A   Overcast
12:55 PM 33.8 °F 25.3 °F 28.4 °F 81% 30.43 in 8.0 mi NNE 11.5 mph - N/A   Overcast
1:15 PM 33.8 °F 26.4 °F 28.4 °F 81% 30.43 in 10.0 mi NNE 9.2 mph - N/A   Overcast
1:35 PM 33.8 °F 25.3 °F 28.4 °F 81% 30.44 in 9.0 mi North 11.5 mph 17.3 mph N/A   Overcast
1:55 PM 33.8 °F 27.0 °F 28.4 °F 81% 30.46 in 10.0 mi North 8.1 mph - N/A   Overcast
2:15 PM 33.8 °F 25.8 °F 28.4 °F 81% 30.45 in 8.0 mi North 10.4 mph - N/A   Overcast
2:35 PM 33.8 °F 25.3 °F 28.4 °F 81% 30.45 in 8.0 mi North 11.5 mph - N/A   Overcast
2:55 PM 33.8 °F 25.8 °F 28.4 °F 81% 30.46 in 7.0 mi North 10.4 mph - N/A   Overcast
3:15 PM 33.8 °F 24.8 °F 28.4 °F 81% 30.46 in 7.0 mi North 12.7 mph - N/A   Overcast
3:35 PM 33.8 °F 25.8 °F 28.4 °F 81% 30.46 in 8.0 mi North 10.4 mph - N/A   Overcast
3:55 PM 33.8 °F 25.8 °F 28.4 °F 81% 30.47 in 8.0 mi North 10.4 mph - N/A   Overcast
4:15 PM 33.8 °F 25.8 °F 28.4 °F 81% 30.46 in 8.0 mi NNE 10.4 mph - N/A   Overcast
4:35 PM 33.8 °F 26.4 °F 28.4 °F 81% 30.45 in 8.0 mi NNE 9.2 mph - N/A   Overcast
4:55 PM 33.8 °F 25.3 °F 28.4 °F 81% 30.44 in 8.0 mi NNE 11.5 mph - N/A   Overcast
5:15 PM 33.8 °F 25.3 °F 28.4 °F 81% 30.45 in 10.0 mi NNE 11.5 mph - N/A   Overcast
5:35 PM 32.0 °F 21.6 °F 26.6 °F 80% 30.45 in 10.0 mi NNE 15.0 mph 20.7 mph N/A   Overcast
5:55 PM 32.0 °F 22.1 °F 26.6 °F 80% 30.45 in 10.0 mi North 13.8 mph 19.6 mph N/A   Overcast
6:15 PM 32.0 °F 24.2 °F 26.6 °F 80% 30.46 in 9.0 mi NNE 9.2 mph 18.4 mph N/A   Overcast
6:55 PM 32.0 °F 22.5 °F 26.6 °F 80% 30.45 in 10.0 mi NNE 12.7 mph - N/A   Overcast
7:15 PM 32.0 °F 23.0 °F 26.6 °F 80% 30.46 in 8.0 mi NNE 11.5 mph - N/A   Overcast
7:35 PM 32.0 °F 23.6 °F 26.6 °F 80% 30.46 in 8.0 mi NNE 10.4 mph - N/A   Overcast
7:55 PM 30.2 °F 22.6 °F 26.6 °F 86% 30.46 in 10.0 mi NNE 8.1 mph - N/A   Overcast
8:15 PM 30.2 °F 20.8 °F 26.6 °F 86% 30.46 in 10.0 mi NNE 11.5 mph - N/A   Overcast
8:35 PM 30.2 °F 20.2 °F 26.6 °F 86% 30.45 in 10.0 mi NNE 12.7 mph 18.4 mph N/A   Overcast
8:55 PM 30.2 °F 21.9 °F 26.6 °F 86% 30.46 in 10.0 mi NNE 9.2 mph - N/A   Overcast
9:15 PM 30.2 °F 21.9 °F 26.6 °F 86% 30.46 in 10.0 mi NNE 9.2 mph - N/A   Overcast
9:35 PM 30.2 °F 21.3 °F 26.6 °F 86% 30.46 in 10.0 mi NNE 10.4 mph - N/A   Overcast
9:55 PM 30.2 °F 20.2 °F 26.6 °F 86% 30.47 in 10.0 mi NNE 12.7 mph 17.3 mph N/A   Overcast
10:15 PM 30.2 °F 21.3 °F 26.6 °F 86% 30.48 in 10.0 mi North 10.4 mph - N/A   Overcast
10:35 PM 30.2 °F 20.8 °F 26.6 °F 86% 30.48 in 10.0 mi North 11.5 mph - N/A   Overcast
10:55 PM 30.2 °F 21.9 °F 26.6 °F 86% 30.48 in 10.0 mi NNE 9.2 mph 17.3 mph N/A   Overcast
11:15 PM 30.2 °F 21.3 °F 26.6 °F 86% 30.49 in 10.0 mi NNE 10.4 mph - N/A   Overcast
11:35 PM 30.2 °F 19.8 °F 26.6 °F 86% 30.48 in 10.0 mi NNE 13.8 mph - N/A   Overcast
11:55 PM 30.2 °F 19.8 °F 26.6 °F 86% 30.48 in 10.0 mi NNE 13.8 mph 17.3 mph N/A   Overcast